Waarnemingen

Advertentie
Mijn weer
Antwerpen, België (6450): temperatuur & dauwpunt: 11.10.2018 06:00:00 - 17.10.2018 06:00:00 (CEST)Antwerpen, België (6450): windsnelheid & windstoten: 11.10.2018 06:00:00 - 17.10.2018 06:00:00 (CEST)Antwerpen, België (6450): windrichting: 11.10.2018 06:00:00 - 17.10.2018 06:00:00 (CEST)Antwerpen, België (6450): luchtdruk: 11.10.2018 06:00:00 - 17.10.2018 06:00:00 (CEST)Antwerpen, België (6450): zicht: 11.10.2018 06:00:00 - 17.10.2018 06:00:00 (CEST)
Datum & Tijd tt [°C] td [°C] ff [km/u] ff [kn] fx [km/u] fx [kn] dd ppp [hPa] vv [km]
17.10.2018 06:00:00 10,0 10,0 4 2 7 4 - 1018,6 2,5
17.10.2018 05:00:00 10,3 9,6 4 2 - - ZZW 1018,4 0,9
17.10.2018 04:00:00 11,8 10,1 4 2 11 6 W 1018,4 5
17.10.2018 03:00:00 14,8 11,6 8 4 18 10 WNW 1018,5 9
17.10.2018 02:00:00 15,3 11,5 8 4 - - WNW 1018,4 10
17.10.2018 01:00:00 12,4 9,8 2 1 7 4 - 1018,3 10
17.10.2018 00:00:00 13,2 9,5 5 3 7 4 Z 1018,1 10
16.10.2018 23:00:00 13,1 9,8 8 4 - - ZZO 1018,3 10
16.10.2018 22:00:00 14,5 10,3 5 3 7 4 ZZW 1018,4 10
16.10.2018 21:00:00 14,6 8,9 8 4 7 4 ZO 1018,3 10
16.10.2018 20:00:00 16,8 11,8 2 1 - - - 1018,1 10
16.10.2018 19:00:00 19,4 11,5 4 2 11 6 ZO 1017,7 10
16.10.2018 18:00:00 23,8 10,1 8 4 11 6 ZZO 1017,4 10
16.10.2018 17:00:00 23,8 11,6 5 3 - - OZO 1017,6 10
16.10.2018 16:00:00 24,3 11,2 8 4 11 6 ZO 1017,8 10
16.10.2018 15:00:00 24,1 9,7 8 4 11 6 O 1018,1 10
16.10.2018 14:00:00 23,0 11,3 4 2 - - - 1018,3 10
16.10.2018 13:00:00 21,2 12,4 4 2 7 4 - 1018,5 10
16.10.2018 12:00:00 19,2 13,0 4 2 7 4 - 1018,6 10
16.10.2018 11:00:00 16,2 11,6 5 3 - - ZZO 1018,5 10
16.10.2018 10:00:00 13,6 10,9 4 2 4 2 - 1018,3 10
16.10.2018 09:00:00 9,6 8,0 2 1 7 4 - 1018,0 10
16.10.2018 08:00:00 9,0 9,0 4 2 - - - 1017,5 10
16.10.2018 07:00:00 10,2 8,0 4 2 7 4 ZO 1017,2 10
16.10.2018 06:00:00 10,1 8,6 4 2 7 4 OZO 1017,0 9
16.10.2018 05:00:00 10,2 8,6 5 3 - - ZO 1016,9 9
16.10.2018 04:00:00 9,4 7,9 4 2 7 4 OZO 1016,6 6
16.10.2018 03:00:00 9,2 7,8 2 1 4 2 O 1016,5 0,3
16.10.2018 02:00:00 10,1 7,6 2 1 - - - 1016,2 1,3
16.10.2018 01:00:00 11,3 8,1 2 1 4 2 OZO 1015,8 5
16.10.2018 00:00:00 12,6 11,0 0 0 4 2 N 1015,5 10
15.10.2018 23:00:00 12,6 10,2 0 0 - - N 1015,2 10
15.10.2018 22:00:00 14,5 10,6 0 0 7 4 N 1014,8 10
15.10.2018 21:00:00 15,8 11,0 2 1 7 4 ZO 1014,5 10
15.10.2018 20:00:00 15,6 11,3 4 2 - - ZZO 1014,0 10
15.10.2018 19:00:00 20,8 11,3 5 3 14 8 Z 1013,4 10
15.10.2018 18:00:00 23,5 11,0 11 6 18 10 ZZW 1012,9 10
15.10.2018 17:00:00 23,8 11,0 11 6 - - ZW 1012,4 10
15.10.2018 16:00:00 23,7 11,5 9 5 25 14 ZZW 1012,0 10
15.10.2018 15:00:00 23,5 11,0 13 7 29 16 ZW 1012,0 10
15.10.2018 14:00:00 22,6 10,5 18 10 - - ZW 1012,1 10
15.10.2018 13:00:00 21,2 11,2 16 9 29 16 Z 1011,9 10
15.10.2018 12:00:00 19,9 12,1 11 6 18 10 Z 1011,8 10
15.10.2018 11:00:00 17,4 11,7 9 5 - - ZO 1011,4 10
15.10.2018 10:00:00 15,3 10,3 8 4 11 6 ZZO 1010,9 10
15.10.2018 09:00:00 14,4 9,6 8 4 14 8 ZZO 1010,2 10
15.10.2018 08:00:00 14,5 9,3 9 5 - - ZZO 1009,7 10
15.10.2018 07:00:00 12,2 8,2 5 3 11 6 ZO 1009,2 10
15.10.2018 06:00:00 12,9 9,0 5 3 7 4 ZO 1009,0 10
15.10.2018 05:00:00 13,4 9,5 5 3 - - ZO 1008,8 10
15.10.2018 04:00:00 13,1 9,5 8 4 11 6 ZO 1008,8 10
15.10.2018 03:00:00 13,3 9,6 5 3 11 6 ZO 1008,7 10
15.10.2018 02:00:00 12,6 10,3 8 4 - - ZO 1008,6 10
15.10.2018 01:00:00 14,7 10,1 9 5 11 6 OZO 1008,3 10
15.10.2018 00:00:00 16,2 10,7 5 3 7 4 ZO 1008,2 10
14.10.2018 23:00:00 15,9 10,8 4 2 - - ZO 1008,2 10
14.10.2018 22:00:00 16,2 11,2 7 4 11 6 OZO 1007,9 30
14.10.2018 21:00:00 17,2 9,2 8 4 11 6 OZO 1007,6 10
14.10.2018 20:00:00 18,3 10,6 7 4 - - ZO 1007,3 30
14.10.2018 19:00:00 22,9 9,9 11 6 22 12 Z 1007,0 10
14.10.2018 18:00:00 23,9 10,6 15 8 25 14 Z 1006,6 10
14.10.2018 17:00:00 24,2 10,1 16 9 - - Z 1006,7 10
14.10.2018 16:00:00 24,3 10,1 24 13 36 19 Z 1006,5 10
14.10.2018 15:00:00 24,0 10,4 21 11 43 23 Z 1006,6 10
14.10.2018 14:00:00 23,4 10,6 26 14 - - Z 1006,9 10
14.10.2018 13:00:00 22,3 10,7 24 13 36 19 Z 1007,4 10
14.10.2018 12:00:00 21,1 12,2 21 11 32 18 Z 1007,8 10
14.10.2018 11:00:00 19,0 12,6 15 8 - - Z 1008,2 10
14.10.2018 10:00:00 16,7 12,2 13 7 18 10 ZZO 1008,4 10
14.10.2018 09:00:00 12,7 11,0 5 3 11 6 OZO 1008,5 10
14.10.2018 08:00:00 11,9 10,9 8 4 - - OZO 1008,7 10
14.10.2018 07:00:00 12,6 12,2 7 4 7 4 OZO 1009,1 30
14.10.2018 06:00:00 13,1 9,6 5 3 7 4 OZO 1009,5 10
14.10.2018 05:00:00 13,4 11,0 5 3 - - OZO 1009,8 10
14.10.2018 04:00:00 13,2 10,4 8 4 14 8 ZO 1010,2 10
14.10.2018 03:00:00 13,7 12,1 5 3 11 6 OZO 1011,1 10
14.10.2018 02:00:00 14,5 12,3 5 3 - - ZO 1011,7 10
14.10.2018 01:00:00 15,1 11,7 8 4 11 6 ZO 1012,2 10
14.10.2018 00:00:00 14,7 12,7 8 4 14 8 ZO 1012,5 10
13.10.2018 23:00:00 15,1 12,6 9 5 - - ZO 1012,9 10
13.10.2018 22:00:00 16,6 12,6 2 1 11 6 ZO 1013,3 10
13.10.2018 21:00:00 17,3 13,6 8 4 11 6 ZZO 1013,0 10
13.10.2018 20:00:00 18,9 12,6 8 4 - - ZO 1013,2 10
13.10.2018 19:00:00 23,3 13,3 13 7 29 16 Z 1013,6 10
13.10.2018 18:00:00 24,7 13,7 15 8 29 16 ZZO 1013,7 10
13.10.2018 17:00:00 25,6 14,8 16 9 - - ZZO 1014,2 10
13.10.2018 16:00:00 25,7 14,8 21 11 32 18 Z 1014,9 10
13.10.2018 15:00:00 25,5 14,9 16 9 29 16 Z 1015,6 10
13.10.2018 14:00:00 24,8 14,6 18 10 - - Z 1016,6 10
13.10.2018 13:00:00 23,6 15,2 21 11 29 16 ZZO 1017,5 10
13.10.2018 12:00:00 22,2 15,5 18 10 25 14 ZZO 1017,8 30
13.10.2018 11:00:00 20,3 14,8 16 9 - - ZZO 1018,2 10
13.10.2018 10:00:00 18,4 14,5 11 6 18 10 ZZO 1018,3 10
13.10.2018 09:00:00 16,8 15,8 9 5 14 8 ZZO 1018,2 10
13.10.2018 08:00:00 16,4 12,9 11 6 - - ZZO 1018,2 10
13.10.2018 07:00:00 16,5 12,4 13 7 22 12 ZZO 1018,3 10
13.10.2018 06:00:00 16,3 12,5 15 8 18 10 ZO 1018,6 10
13.10.2018 05:00:00 16,8 13,2 11 6 - - ZZO 1018,9 10
13.10.2018 04:00:00 16,5 13,2 9 5 14 8 ZZO 1019,0 10
13.10.2018 03:00:00 15,4 12,1 9 5 14 8 Z 1018,7 10
13.10.2018 02:00:00 17,8 13,5 11 6 - - Z 1018,7 10
13.10.2018 01:00:00 15,2 12,9 11 6 14 8 ZZO 1018,4 10
13.10.2018 00:00:00 18,8 14,3 9 5 14 8 ZZO 1018,8 10
12.10.2018 23:00:00 20,0 14,7 9 5 - - Z 1019,1 10
12.10.2018 22:00:00 20,1 14,7 13 7 22 12 Z 1018,7 10
12.10.2018 21:00:00 19,7 15,3 13 7 18 10 ZZO 1018,6 10
12.10.2018 20:00:00 20,5 15,0 11 6 - - ZZO 1018,3 10
12.10.2018 19:00:00 22,1 15,3 13 7 32 18 Z 1018,0 10
12.10.2018 18:00:00 23,0 15,5 18 10 32 18 Z 1017,8 10
12.10.2018 17:00:00 23,1 14,9 18 10 - - Z 1017,9 10
12.10.2018 16:00:00 23,6 14,5 22 12 32 18 Z 1017,7 10
12.10.2018 15:00:00 22,6 14,7 15 8 32 18 Z 1017,9 10
12.10.2018 14:00:00 21,6 14,9 18 10 - - Z 1018,1 10
12.10.2018 13:00:00 20,4 14,6 18 10 32 18 Z 1018,2 10
12.10.2018 12:00:00 19,0 14,6 16 9 32 18 Z 1018,1 10
12.10.2018 11:00:00 18,1 14,4 16 9 - - Z 1018,2 10
12.10.2018 10:00:00 16,8 13,9 9 5 18 10 Z 1017,8 10
12.10.2018 09:00:00 15,2 15,0 11 6 18 10 Z 1017,2 10
12.10.2018 08:00:00 12,5 12,2 9 5 - - ZZO 1016,6 10
12.10.2018 07:00:00 14,1 14,1 9 5 18 10 Z 1015,7 10
12.10.2018 06:00:00 14,9 13,5 11 6 14 8 Z 1015,4 10
12.10.2018 05:00:00 15,3 12,6 9 5 - - Z 1014,6 10
12.10.2018 04:00:00 15,9 13,2 9 5 18 10 Z 1013,9 10
12.10.2018 03:00:00 16,2 13,0 11 6 25 14 Z 1013,7 10
12.10.2018 02:00:00 16,7 13,2 16 9 - - Z 1013,3 10
12.10.2018 01:00:00 16,8 15,5 11 6 29 16 Z 1012,5 5
12.10.2018 00:00:00 19,0 13,0 13 7 22 12 ZZO 1011,2 10
11.10.2018 23:00:00 18,4 12,9 14 8 - - ZO 1011,0 35
11.10.2018 22:00:00 16,7 13,4 13 7 18 10 ZO 1011,0 10
11.10.2018 21:00:00 16,3 12,1 9 5 14 8 ZO 1011,0 10
11.10.2018 20:00:00 20,4 12,8 9 5 - - ZZO 1011,0 10
11.10.2018 19:00:00 22,3 12,5 9 5 29 16 ZZO 1010,4 10
11.10.2018 18:00:00 23,9 12,5 11 6 32 18 ZZO 1009,9 10
11.10.2018 17:00:00 24,2 12,6 21 11 - - ZZO 1009,6 10
11.10.2018 16:00:00 24,4 12,4 24 13 43 23 ZZO 1009,6 10
11.10.2018 15:00:00 24,1 12,0 26 14 43 23 Z 1009,7 10
11.10.2018 14:00:00 23,4 14,3 18 10 - - ZZO 1009,8 10
11.10.2018 13:00:00 21,3 15,1 16 9 22 12 ZO 1010,4 10
11.10.2018 12:00:00 19,2 15,1 13 7 18 10 ZO 1010,7 10
11.10.2018 11:00:00 16,5 15,2 9 5 - - ZO 1011,2 10
11.10.2018 10:00:00 17,4 13,2 11 6 22 12 Z 1011,2 10
11.10.2018 09:00:00 17,0 12,4 11 6 22 12 Z 1010,7 10
11.10.2018 08:00:00 16,3 11,7 13 7 - - ZZO 1010,4 10
11.10.2018 07:00:00 14,5 11,9 11 6 18 10 ZO 1010,1 10
11.10.2018 06:00:00 13,7 10,8 11 6 14 8 ZO 1010,0 10

tt = temperatuur
td = dauwpunt
ff = windsnelheid
fx = windstoten
dd = windrichting
ppp = luchtdruk
vv = zicht

Weerstations in de omgeving